Regional Weather Roundup
Issued by NWS

Home | Current Version | Previous Version | Text Only | Print | Product List | Glossary Off
Versions: 1 2 3 4 5 6 7 8 9 10 11 12 13 14 15 16 17 18 19 20 21 22 23 24 25 26 27 28 29 30 31 32 33 34 35 36 37 38 39 40 41 42 43 44 45 46 47 48 49 50

000
ASUS43 KLOT 050821
RWRIL

ILLINOIS REGIONAL WEATHER ROUNDUP
NATIONAL WEATHER SERVICE CHICAGO/ROMEOVILLE IL
300 AM CDT SUN JUL 05 2015

NOTE: "FAIR" INDICATES FEW OR NO CLOUDS BELOW 12,000 FEET WITH NO
SIGNIFICANT WEATHER AND/OR OBSTRUCTIONS TO VISIBILITY.

* THESE STATIONS ARE NOT UNDER NWS QUALITY CONTROL. THEY ALSO MAY NOT
  REPORT WEATHER SUCH AS PRECIPITATION OR FOG.

ILZ001-002-007-009-015-016-024-050900-
NORTHWEST ILLINOIS

CITY           SKY/WX    TMP DP  RH WIND       PRES   REMARKS
MOLINE         CLEAR     64  59  83 CALM      30.04R
STERLING*      CLEAR     59  57  94 SE3       30.06R
SAVANNA*       CLEAR     61  59  92 CALM      30.04S FOG
$$

ILZ003-004-008-010-011-017-018-050900-
NORTH CENTRAL ILLINOIS

CITY           SKY/WX    TMP DP  RH WIND       PRES   REMARKS
ROCKFORD       CLEAR     63  59  87 CALM      30.07R
FREEPORT*      CLEAR     59  57  95 CALM      30.07R
ROCHELLE*      CLEAR     59  57  94 CALM      30.07R
DE KALB*       CLEAR     60  56  88 CALM      30.07R
PERU*          CLEAR     66  59  77 CALM      30.07R
$$

ILZ005-006-012>014-019>023-050900-
NORTHEAST ILLINOIS

CITY           SKY/WX    TMP DP  RH WIND       PRES   REMARKS
CHICAGO-OHARE  PTCLDY    63  57  81 CALM      30.05R SMOKE
CHICAGO-MIDWAY PTCLDY    69  59  70 CALM      30.05R SMOKE
AURORA         CLEAR     61  57  87 CALM      30.06R FOG
LANSING*         N/A     63  60  91 CALM      30.06S FOG
JOLIET*        CLEAR     61  60  97 CALM      30.06S FOG
WAUKEGAN       CLEAR     59  56  89 CALM      30.05S FOG
DUPAGE AIRPORT CLEAR     61  59  93 CALM      30.06R FOG
KANKAKEE*      CLEAR     63  62  97 CALM      30.07S
WHEELING       CLEAR     63  57  81 CALM      30.07R HAZE
MORRIS*        CLEAR     63  60  91 CALM      30.04R
ROMEOVILLE*    CLEAR     63  58  86 CALM      30.07R FOG
NORTHERLY ISL    N/A     70  58  65 W6          N/A
$$

LMZ740>746-050900-
SOUTHERN LAKE MICHIGAN

STATION/POSITION SKY/WX   TEMP    WIND        PRES    VSBY  WAVE
                          AIR SEA DIR/SP/G                  HT/PER
                          (F)     (DEG/KT/KT) (MB)    (MI)  (FT/S)
HARRISON CRIB              71     280/  1/  2   N/A
BURNHAM HARBOR             70     250/  3/  5   N/A
CALUMET HARBOR             67     230/  2/  2   N/A
BURNS HARBOR               69     180/  4/  7 1017.9S
MICHIGAN CITY              69     150/  8/ 11   N/A
MICHIGAN CITY 6N           65 64  180/  4/  4   N/A           0
ST. JOSEPH                 66 64                N/A           0
$$

ILZ025>027-034>036-040-047-049-050-058-095>099-050900-
WEST-CENTRAL ILLINOIS

CITY           SKY/WX    TMP DP  RH WIND       PRES   REMARKS
QUINCY         CLEAR     67  62  84 SE5       30.04F
GALESBURG*     CLEAR     64  60  88 CALM      30.06S
MACOMB*        CLEAR     60  59  98 S3        30.07R
JACKSONVILLE*  CLEAR     67  63  88 CALM      30.05S
PITTSFIELD*    CLEAR     66  62  88 CALM      30.06S
$$

ILZ028>032-037-038-041>044-048-051>054-059>061-050900-
CENTRAL ILLINOIS

CITY           SKY/WX    TMP DP  RH WIND       PRES   REMARKS
PONTIAC        CLEAR     61  61  99 CALM      30.07R FOG
BLOOMINGTON    CLEAR     65  62  90 SW3       30.08R
DECATUR        CLEAR     61  58  90 CALM      30.06S FOG
PEORIA         CLEAR     65  60  84 CALM      30.06R HAZE
LACON*         CLEAR     61  59  92 CALM      30.05R
LINCOLN*       CLEAR     62  60  91 CALM      30.06S FOG
SPRINGFIELD    CLEAR     64  61  90 CALM      30.06R FOG
TAYLORVILLE      N/A     59  59 100 CALM      30.06R FOG
$$

ILZ033-039-045-046-055>057-062-063-050900-
EAST-CENTRAL ILLINOIS

CITY           SKY/WX    TMP DP  RH WIND       PRES   REMARKS
CHAMPAIGN      CLEAR     60  58  92 CALM      30.06S
DANVILLE*      CLEAR     59  58  97 CALM      30.04S FOG
RANTOUL*       CLEAR     64  62  91 CALM      30.06S
MATTOON        CLEAR     63  60  90 CALM      30.04S
PARIS*         PTCLDY    61  60  99 CALM      30.06S FOG
$$

ILZ079-100>102-050900-
SOUTHWEST ILLINOIS

CITY           SKY/WX    TMP DP  RH WIND       PRES   REMARKS
ALTON            N/A     62  62 100 CALM      30.05F FOG
BELLEVILLE     CLEAR     64  64 100 CALM      30.04S
CAHOKIA*       CLEAR     66  63  90 CALM      30.04F
SPARTA*        PTCLDY    68  65  90 CALM      30.06R
$$

ILZ064>066-069>071-074>076-080>082-084>086-088>090-092>094-050900-
SOUTH-CENTRAL ILLINOIS

CITY           SKY/WX    TMP DP  RH WIND       PRES   REMARKS
CARBONDALE     FOG       67  66  97 CALM      30.04F VSB 1/4
CAIRO*         MOCLDY    69  69 100 CALM      30.04S FOG
EFFINGHAM*     PTCLDY    64  61  91 CALM      30.06S FOG
MARION         FOG       68  68 100 CALM      30.05S VSB 1
MT. VERNON     PTCLDY    63  57  82 CALM      30.05F VSB 1
CENTRALIA*     PTCLDY    64  62  93 CALM      30.05S FOG
SALEM*         PTCLDY    65  63  92 CALM      30.05S FOG
$$

ILZ067-068-072-073-078-083-087-091-050900-
SOUTHEAST ILLINOIS

CITY           SKY/WX    TMP DP  RH WIND       PRES   REMARKS
LAWRENCEVILLE  CLOUDY    68  65  90 N3        30.03F FOG
FLORA*         CLOUDY    65  65  97 NW3       30.05S FOG
FAIRFIELD*     MOCLDY    68  67  98 CALM      30.03S FOG
HARRISBURG*      N/A     67  67 100 CALM      30.05R FOG
ROBINSON*      MOCLDY    65  64  97 CALM      30.05S FOG
CARMI*         CLOUDY    69  64  83 W3        30.02S HAZE
$$

ABBREVIATIONS USED IN REMARKS
   TC - TEMPERATURE IN CELSIUS
  WCI - WIND CHILL INDEX
   HX - HEAT INDEX
  VSB - VISIBILITY
$$



USA.gov is the U.S. government's official web portal to all federal, state and local government web resources and services.